Starlink 31696

operational
NORAD ID: 59435 Int'l Des: 2024-065 Owner: SPXS Country: US Constellation: starlink
LEOCIRCULAR

About Starlink 31696

Description loading...

Live Position

Loading 3D Globe...

Upcoming Passes

Altitude History

Altitude vs Time

uPlot chart will show altitude changes over time

Two-Line Element Set

1 59435U 24065Q 25304.31859412 .00000005 00000-0 12300-4 0 9995
2 59435 53.1589 162.4827 0001185 91.7828 268.3308 15.30190032 89123
Epoch: Oct 31, 2025 • Age: 15 hours

Current Status

Altitude 475.1 km
Velocity 7.63 km/s
Sub-Earth Point 14.28°N, 48.68°W
Launch Date Apr 7, 2024
Age 1.5 years
Type internet

Technical Details

Classification Payload
Mass 730.00 kg
Dry Mass 700.00 kg
Total Mass 730.00 kg
Length 0.30 m
Diameter 4.10 m
Span 29.00 m
Shape Box + pan
Manufacturer SPXS
Bus Type Starlink V2M
Phase Status In Orbit
Owner/State SPXS/US

Large Constellations

Loading constellations...